Year,Month,Day,Hour,Minute,Value (Times are PST for temperature in C)
2006,05,30,00,00,9.30
2006,05,30,00,01,9.30
2006,05,30,00,02,9.30
2006,05,30,00,03,9.40
2006,05,30,00,04,9.40
2006,05,30,00,05,9.40
2006,05,30,00,06,9.40
2006,05,30,00,07,9.40
2006,05,30,00,08,9.40
2006,05,30,00,09,9.40
2006,05,30,00,10,9.30
2006,05,30,00,11,9.30
2006,05,30,00,12,9.30
2006,05,30,00,13,9.30
2006,05,30,00,14,9.30
2006,05,30,00,15,9.30
2006,05,30,00,16,9.30
2006,05,30,00,17,9.40
2006,05,30,00,18,9.40
2006,05,30,00,19,9.40
2006,05,30,00,20,9.40
2006,05,30,00,21,9.40
2006,05,30,00,22,9.40
2006,05,30,00,23,9.40
2006,05,30,00,24,9.30
2006,05,30,00,25,9.30
2006,05,30,00,26,9.30
2006,05,30,00,27,9.30
2006,05,30,00,28,9.20
2006,05,30,00,29,9.20
2006,05,30,00,30,9.20
2006,05,30,00,31,9.20
2006,05,30,00,32,9.20
2006,05,30,00,33,9.20
2006,05,30,00,34,9.20
2006,05,30,00,35,9.20
2006,05,30,00,36,9.20
2006,05,30,00,37,9.20
2006,05,30,00,38,9.20
2006,05,30,00,39,9.10
2006,05,30,00,40,9.10
2006,05,30,00,41,9.00
2006,05,30,00,42,9.00
2006,05,30,00,43,9.00
2006,05,30,00,44,9.00
2006,05,30,00,45,9.00
2006,05,30,00,46,8.90
2006,05,30,00,47,8.90
2006,05,30,00,48,8.90
2006,05,30,00,49,8.90
2006,05,30,00,50,8.90
2006,05,30,00,51,8.80
2006,05,30,00,52,8.80
2006,05,30,00,53,8.70
2006,05,30,00,54,8.70
2006,05,30,00,55,8.70
2006,05,30,00,56,8.70
2006,05,30,00,57,8.70
2006,05,30,00,58,8.70
2006,05,30,00,59,8.70
2006,05,30,01,00,8.70
2006,05,30,01,01,8.70
2006,05,30,01,02,8.70
2006,05,30,01,03,8.80
2006,05,30,01,04,8.80
2006,05,30,01,05,8.80
2006,05,30,01,06,8.80
2006,05,30,01,07,8.80
2006,05,30,01,08,8.80
2006,05,30,01,09,8.80
2006,05,30,01,10,8.80
2006,05,30,01,11,8.70
2006,05,30,01,12,8.70
2006,05,30,01,13,8.70
2006,05,30,01,14,8.70
2006,05,30,01,15,8.70
2006,05,30,01,16,8.70
2006,05,30,01,17,8.70
2006,05,30,01,18,8.70
2006,05,30,01,19,8.60
2006,05,30,01,20,8.60
2006,05,30,01,21,8.60
2006,05,30,01,22,8.60
2006,05,30,01,23,8.60
2006,05,30,01,24,8.60
2006,05,30,01,25,8.60
2006,05,30,01,26,8.60
2006,05,30,01,27,8.60
2006,05,30,01,28,8.60
2006,05,30,01,29,8.60
2006,05,30,01,30,8.60
2006,05,30,01,31,8.70
2006,05,30,01,32,8.70
2006,05,30,01,33,8.70
2006,05,30,01,34,8.70
2006,05,30,01,35,8.60
2006,05,30,01,36,8.60
2006,05,30,01,37,8.50
2006,05,30,01,38,8.50
2006,05,30,01,39,8.40
2006,05,30,01,40,8.30
2006,05,30,01,41,8.30
2006,05,30,01,42,8.20
2006,05,30,01,43,8.20
2006,05,30,01,44,8.20
2006,05,30,01,45,8.20
2006,05,30,01,46,8.20
2006,05,30,01,47,8.20
2006,05,30,01,48,8.20
2006,05,30,01,49,8.20
2006,05,30,01,50,8.20
2006,05,30,01,51,8.20
2006,05,30,01,52,8.20
2006,05,30,01,53,8.20
2006,05,30,01,54,8.20
2006,05,30,01,55,8.20
2006,05,30,01,56,8.20
2006,05,30,01,57,8.20
2006,05,30,01,58,8.10
2006,05,30,01,59,8.10
2006,05,30,02,00,8.10
2006,05,30,02,01,8.10
2006,05,30,02,02,8.10
2006,05,30,02,03,8.20
2006,05,30,02,04,8.20
2006,05,30,02,05,8.20
2006,05,30,02,06,8.20
2006,05,30,02,07,8.20
2006,05,30,02,08,8.20
2006,05,30,02,09,8.20
2006,05,30,02,10,8.20
2006,05,30,02,11,8.20
2006,05,30,02,12,8.20
2006,05,30,02,13,8.20
2006,05,30,02,14,8.20
2006,05,30,02,15,8.20
2006,05,30,02,16,8.20
2006,05,30,02,17,8.20
2006,05,30,02,18,8.20
2006,05,30,02,19,8.10
2006,05,30,02,20,8.10
2006,05,30,02,21,8.10
2006,05,30,02,22,8.00
2006,05,30,02,23,8.00
2006,05,30,02,24,8.00
2006,05,30,02,25,7.90
2006,05,30,02,26,7.90
2006,05,30,02,27,7.80
2006,05,30,02,28,7.80
2006,05,30,02,29,7.80
2006,05,30,02,30,7.80
2006,05,30,02,31,7.80
2006,05,30,02,32,7.70
2006,05,30,02,33,7.70
2006,05,30,02,34,7.70
2006,05,30,02,35,7.60
2006,05,30,02,36,7.60
2006,05,30,02,37,7.60
2006,05,30,02,38,7.60
2006,05,30,02,39,7.50
2006,05,30,02,40,7.50
2006,05,30,02,41,7.50
2006,05,30,02,42,7.50
2006,05,30,02,43,7.60
2006,05,30,02,44,7.60
2006,05,30,02,45,7.70
2006,05,30,02,46,7.80
2006,05,30,02,47,7.80
2006,05,30,02,48,7.80
2006,05,30,02,49,7.70
2006,05,30,02,50,7.70
2006,05,30,02,51,7.70
2006,05,30,02,52,7.70
2006,05,30,02,53,7.70
2006,05,30,02,54,7.70
2006,05,30,02,55,7.70
2006,05,30,02,56,7.60
2006,05,30,02,57,7.60
2006,05,30,02,58,7.60
2006,05,30,02,59,7.60
2006,05,30,03,00,7.60
2006,05,30,03,01,7.70
2006,05,30,03,02,7.70
2006,05,30,03,03,7.80
2006,05,30,03,04,7.80
2006,05,30,03,05,7.80
2006,05,30,03,06,7.80
2006,05,30,03,07,7.80
2006,05,30,03,08,7.80
2006,05,30,03,09,7.80
2006,05,30,03,10,7.80
2006,05,30,03,11,7.80
2006,05,30,03,12,7.80
2006,05,30,03,13,7.80
2006,05,30,03,14,7.80
2006,05,30,03,15,7.80
2006,05,30,03,16,7.80
2006,05,30,03,17,7.80
2006,05,30,03,18,7.80
2006,05,30,03,19,7.80
2006,05,30,03,20,7.80
2006,05,30,03,21,7.80
2006,05,30,03,22,7.80
2006,05,30,03,23,7.80
2006,05,30,03,24,7.80
2006,05,30,03,25,7.80
2006,05,30,03,26,7.80
2006,05,30,03,27,7.80
2006,05,30,03,28,7.80
2006,05,30,03,29,7.80
2006,05,30,03,30,7.80
2006,05,30,03,31,7.80
2006,05,30,03,32,7.80
2006,05,30,03,33,7.80
2006,05,30,03,34,7.70
2006,05,30,03,35,7.70
2006,05,30,03,36,7.70
2006,05,30,03,37,7.60
2006,05,30,03,38,7.60
2006,05,30,03,39,7.60
2006,05,30,03,40,7.50
2006,05,30,03,41,7.50
2006,05,30,03,42,7.50
2006,05,30,03,43,7.40
2006,05,30,03,44,7.40
2006,05,30,03,45,7.40
2006,05,30,03,46,7.40
2006,05,30,03,47,7.40
2006,05,30,03,48,7.40
2006,05,30,03,49,7.40
2006,05,30,03,50,7.40
2006,05,30,03,51,7.30
2006,05,30,03,52,7.30
2006,05,30,03,53,7.30
2006,05,30,03,54,7.30
2006,05,30,03,55,7.30
2006,05,30,03,56,7.30
2006,05,30,03,57,7.30
2006,05,30,03,58,7.30
2006,05,30,03,59,7.30
2006,05,30,04,00,7.30
2006,05,30,04,01,7.30
2006,05,30,04,02,7.30
2006,05,30,04,03,7.30
2006,05,30,04,04,7.30
2006,05,30,04,05,7.30
2006,05,30,04,06,7.40
2006,05,30,04,07,7.40
2006,05,30,04,08,7.40
2006,05,30,04,09,7.40
2006,05,30,04,10,7.40
2006,05,30,04,11,7.40
2006,05,30,04,12,7.50
2006,05,30,04,13,7.50
2006,05,30,04,14,7.50
2006,05,30,04,15,7.40
2006,05,30,04,16,7.40
2006,05,30,04,17,7.40
2006,05,30,04,18,7.40
2006,05,30,04,19,7.40
2006,05,30,04,20,7.40
2006,05,30,04,21,7.40
2006,05,30,04,22,7.40
2006,05,30,04,23,7.40
2006,05,30,04,24,7.40
2006,05,30,04,25,7.30
2006,05,30,04,26,7.30
2006,05,30,04,27,7.30
2006,05,30,04,28,7.30
2006,05,30,04,29,7.30
2006,05,30,04,30,7.30
2006,05,30,04,31,7.30
2006,05,30,04,32,7.30
2006,05,30,04,33,7.30
2006,05,30,04,34,7.30
2006,05,30,04,35,7.30
2006,05,30,04,36,7.20
2006,05,30,04,37,7.20
2006,05,30,04,38,7.20
2006,05,30,04,39,7.20
2006,05,30,04,40,7.20
2006,05,30,04,41,7.20
2006,05,30,04,42,7.20
2006,05,30,04,43,7.20
2006,05,30,04,44,7.20
2006,05,30,04,45,7.10
2006,05,30,04,46,7.10
2006,05,30,04,47,7.10
2006,05,30,04,48,7.10
2006,05,30,04,49,7.00
2006,05,30,04,50,7.00
2006,05,30,04,51,6.90
2006,05,30,04,52,6.80
2006,05,30,04,53,6.80
2006,05,30,04,54,6.70
2006,05,30,04,55,6.70
2006,05,30,04,56,6.70
2006,05,30,04,57,6.70
2006,05,30,04,58,6.70
2006,05,30,04,59,6.70
2006,05,30,05,00,6.80
2006,05,30,05,01,6.80
2006,05,30,05,02,6.90
2006,05,30,05,03,7.00
2006,05,30,05,04,7.00
2006,05,30,05,05,7.00
2006,05,30,05,06,7.00
2006,05,30,05,07,7.00
2006,05,30,05,08,6.90
2006,05,30,05,09,6.90
2006,05,30,05,10,6.90
2006,05,30,05,11,6.90
2006,05,30,05,12,6.90
2006,05,30,05,13,6.90
2006,05,30,05,14,6.90
2006,05,30,05,15,7.00
2006,05,30,05,16,7.00
2006,05,30,05,17,7.00
2006,05,30,05,18,7.00
2006,05,30,05,19,7.00
2006,05,30,05,20,7.00
2006,05,30,05,21,7.00
2006,05,30,05,22,7.00
2006,05,30,05,23,7.00
2006,05,30,05,24,7.10
2006,05,30,05,25,7.10
2006,05,30,05,26,7.20
2006,05,30,05,27,7.20
2006,05,30,05,28,7.20
2006,05,30,05,29,7.20
2006,05,30,05,30,7.20
2006,05,30,05,31,7.20
2006,05,30,05,32,7.20
2006,05,30,05,33,7.20
2006,05,30,05,34,7.10
2006,05,30,05,35,7.10
2006,05,30,05,36,7.10
2006,05,30,05,37,7.10
2006,05,30,05,38,7.10
2006,05,30,05,39,7.00
2006,05,30,05,40,7.00
2006,05,30,05,41,7.00
2006,05,30,05,42,7.00
2006,05,30,05,43,7.00
2006,05,30,05,44,7.10
2006,05,30,05,45,7.10
2006,05,30,05,46,7.10
2006,05,30,05,47,7.10
2006,05,30,05,48,7.10
2006,05,30,05,49,7.10
2006,05,30,05,50,7.10
2006,05,30,05,51,7.10
2006,05,30,05,52,7.10
2006,05,30,05,53,7.10
2006,05,30,05,54,7.10
2006,05,30,05,55,7.10
2006,05,30,05,56,7.10
2006,05,30,05,57,7.20
2006,05,30,05,58,7.20
2006,05,30,05,59,7.20
2006,05,30,06,00,7.20
2006,05,30,06,01,7.20
2006,05,30,06,02,7.30
2006,05,30,06,03,7.30
2006,05,30,06,04,7.30
2006,05,30,06,05,7.30
2006,05,30,06,06,7.30
2006,05,30,06,07,7.30
2006,05,30,06,08,7.30
2006,05,30,06,09,7.30
2006,05,30,06,10,7.30
2006,05,30,06,11,7.40
2006,05,30,06,12,7.40
2006,05,30,06,13,7.40
2006,05,30,06,14,7.50
2006,05,30,06,15,7.50
2006,05,30,06,16,7.50
2006,05,30,06,17,7.50
2006,05,30,06,18,7.60
2006,05,30,06,19,7.60
2006,05,30,06,20,7.60
2006,05,30,06,21,7.60
2006,05,30,06,22,7.70
2006,05,30,06,23,7.70
2006,05,30,06,24,7.70
2006,05,30,06,25,7.80
2006,05,30,06,26,7.80
2006,05,30,06,27,7.80
2006,05,30,06,28,7.80
2006,05,30,06,29,7.80
2006,05,30,06,30,7.90
2006,05,30,06,31,7.90
2006,05,30,06,32,8.00
2006,05,30,06,33,8.00
2006,05,30,06,34,8.00
2006,05,30,06,35,8.10
2006,05,30,06,36,8.10
2006,05,30,06,37,8.20
2006,05,30,06,38,8.20
2006,05,30,06,39,8.20
2006,05,30,06,40,8.30
2006,05,30,06,41,8.30
2006,05,30,06,42,8.40
2006,05,30,06,43,8.40
2006,05,30,06,44,8.50
2006,05,30,06,45,8.50
2006,05,30,06,46,8.50
2006,05,30,06,47,8.60
2006,05,30,06,48,8.60
2006,05,30,06,49,8.60
2006,05,30,06,50,8.70
2006,05,30,06,51,8.70
2006,05,30,06,52,8.70
2006,05,30,06,53,8.70
2006,05,30,06,54,8.80
2006,05,30,06,55,8.90
2006,05,30,06,56,8.90
2006,05,30,06,57,9.00
2006,05,30,06,58,9.00
2006,05,30,06,59,9.00
2006,05,30,07,00,9.10
2006,05,30,07,01,9.20
2006,05,30,07,02,9.30
2006,05,30,07,03,9.40
2006,05,30,07,04,9.50
2006,05,30,07,05,9.60
2006,05,30,07,06,9.70
2006,05,30,07,07,9.80
2006,05,30,07,08,9.90
2006,05,30,07,09,10.10
2006,05,30,07,10,10.20
2006,05,30,07,11,10.30
2006,05,30,07,12,10.50
2006,05,30,07,13,10.60
2006,05,30,07,14,10.60
2006,05,30,07,15,10.60
2006,05,30,07,16,10.70
2006,05,30,07,17,10.80
2006,05,30,07,18,10.90
2006,05,30,07,19,10.90
2006,05,30,07,20,10.90
2006,05,30,07,21,11.10
2006,05,30,07,22,11.10
2006,05,30,07,23,11.20
2006,05,30,07,24,11.30
2006,05,30,07,25,11.40
2006,05,30,07,26,11.40
2006,05,30,07,27,11.40
2006,05,30,07,28,11.40
2006,05,30,07,29,11.60
2006,05,30,07,30,11.80
2006,05,30,07,31,11.80
2006,05,30,07,32,11.90
2006,05,30,07,33,12.00
2006,05,30,07,34,12.10
2006,05,30,07,35,12.20
2006,05,30,07,36,12.20
2006,05,30,07,37,12.20
2006,05,30,07,38,12.30
2006,05,30,07,39,12.40
2006,05,30,07,40,12.40
2006,05,30,07,41,12.40
2006,05,30,07,42,12.50
2006,05,30,07,43,12.50
2006,05,30,07,44,12.60
2006,05,30,07,45,12.60
2006,05,30,07,46,12.60
2006,05,30,07,47,12.70
2006,05,30,07,48,12.70
2006,05,30,07,49,12.70
2006,05,30,07,50,12.80
2006,05,30,07,51,12.80
2006,05,30,07,52,12.90
2006,05,30,07,53,13.00
2006,05,30,07,54,13.10
2006,05,30,07,55,13.10
2006,05,30,07,56,13.30
2006,05,30,07,57,13.30
2006,05,30,07,58,13.30
2006,05,30,07,59,13.30
2006,05,30,08,00,13.40
2006,05,30,08,01,13.50
2006,05,30,08,02,13.60
2006,05,30,08,03,13.60
2006,05,30,08,04,13.70
2006,05,30,08,05,13.80
2006,05,30,08,06,13.90
2006,05,30,08,07,13.90
2006,05,30,08,08,13.90
2006,05,30,08,09,13.90
2006,05,30,08,10,13.90
2006,05,30,08,11,14.00
2006,05,30,08,12,14.00
2006,05,30,08,13,14.00
2006,05,30,08,14,14.10
2006,05,30,08,15,14.10
2006,05,30,08,16,14.20
2006,05,30,08,17,14.20
2006,05,30,08,18,14.20
2006,05,30,08,19,14.20
2006,05,30,08,20,14.20
2006,05,30,08,21,14.20
2006,05,30,08,22,14.20
2006,05,30,08,23,14.20
2006,05,30,08,24,14.20
2006,05,30,08,25,14.20
2006,05,30,08,26,14.20
2006,05,30,08,27,14.10
2006,05,30,08,28,14.10
2006,05,30,08,29,14.00
2006,05,30,08,30,14.00
2006,05,30,08,31,14.00
2006,05,30,08,32,14.00
2006,05,30,08,33,14.00
2006,05,30,08,34,13.90
2006,05,30,08,35,13.90
2006,05,30,08,36,13.90
2006,05,30,08,37,13.80
2006,05,30,08,38,13.70
2006,05,30,08,39,13.70
2006,05,30,08,40,13.70
2006,05,30,08,41,13.80
2006,05,30,08,42,13.80
2006,05,30,08,43,13.90
2006,05,30,08,44,13.90
2006,05,30,08,45,14.00
2006,05,30,08,46,14.00
2006,05,30,08,47,14.00
2006,05,30,08,48,14.10
2006,05,30,08,49,14.20
2006,05,30,08,50,14.20
2006,05,30,08,51,14.20
2006,05,30,08,52,14.30
2006,05,30,08,53,14.40
2006,05,30,08,54,14.50
2006,05,30,08,55,14.50
2006,05,30,08,56,14.50
2006,05,30,08,57,14.60
2006,05,30,08,58,14.60
2006,05,30,08,59,14.60
2006,05,30,09,00,14.60
2006,05,30,09,01,14.70
2006,05,30,09,02,14.70
2006,05,30,09,03,14.70
2006,05,30,09,04,14.70
2006,05,30,09,05,14.60
2006,05,30,09,06,14.60
2006,05,30,09,07,14.60
2006,05,30,09,08,14.60
2006,05,30,09,09,14.70
2006,05,30,09,10,14.70
2006,05,30,09,11,14.60
2006,05,30,09,12,14.50
2006,05,30,09,13,14.50
2006,05,30,09,14,14.50
2006,05,30,09,15,14.60
2006,05,30,09,16,14.60
2006,05,30,09,17,14.70
2006,05,30,09,18,14.80
2006,05,30,09,19,14.90
2006,05,30,09,20,14.90
2006,05,30,09,21,14.90
2006,05,30,09,22,15.00
2006,05,30,09,23,15.10
2006,05,30,09,24,15.20
2006,05,30,09,25,15.20
2006,05,30,09,26,15.30
2006,05,30,09,27,15.30
2006,05,30,09,28,15.20
2006,05,30,09,29,15.20
2006,05,30,09,30,15.20
2006,05,30,09,31,15.20
2006,05,30,09,32,15.10
2006,05,30,09,33,15.10
2006,05,30,09,34,15.20
2006,05,30,09,35,15.10
2006,05,30,09,36,15.10
2006,05,30,09,37,15.10
2006,05,30,09,38,15.10
2006,05,30,09,39,15.00
2006,05,30,09,40,15.00
2006,05,30,09,41,15.00
2006,05,30,09,42,15.00
2006,05,30,09,43,15.00
2006,05,30,09,44,15.00
2006,05,30,09,45,14.90
2006,05,30,09,46,14.80
2006,05,30,09,47,14.80
2006,05,30,09,48,14.80
2006,05,30,09,49,14.90
2006,05,30,09,50,15.10
2006,05,30,09,51,15.10
2006,05,30,09,52,15.10
2006,05,30,09,53,15.20
2006,05,30,09,54,15.30
2006,05,30,09,55,15.30
2006,05,30,09,56,15.30
2006,05,30,09,57,15.30
2006,05,30,09,58,15.30
2006,05,30,09,59,15.40
2006,05,30,10,00,15.40
2006,05,30,10,01,15.50
2006,05,30,10,02,15.50
2006,05,30,10,03,15.40
2006,05,30,10,04,15.40
2006,05,30,10,05,15.50
2006,05,30,10,06,15.60
2006,05,30,10,07,15.60
2006,05,30,10,08,15.60
2006,05,30,10,09,15.60
2006,05,30,10,10,15.60
2006,05,30,10,11,15.60
2006,05,30,10,12,15.50
2006,05,30,10,13,15.50
2006,05,30,10,14,15.40
2006,05,30,10,15,15.40
2006,05,30,10,16,15.30
2006,05,30,10,17,15.30
2006,05,30,10,18,15.30
2006,05,30,10,19,15.40
2006,05,30,10,20,15.50
2006,05,30,10,21,15.50
2006,05,30,10,22,15.60
2006,05,30,10,23,15.70
2006,05,30,10,24,15.70
2006,05,30,10,25,15.80
2006,05,30,10,26,15.80
2006,05,30,10,27,16.00
2006,05,30,10,28,16.10
2006,05,30,10,29,16.20
2006,05,30,10,30,16.30
2006,05,30,10,31,16.30
2006,05,30,10,32,16.20
2006,05,30,10,33,16.20
2006,05,30,10,34,16.20
2006,05,30,10,35,16.30
2006,05,30,10,36,16.40
2006,05,30,10,37,16.40
2006,05,30,10,38,16.40
2006,05,30,10,39,16.40
2006,05,30,10,40,16.40
2006,05,30,10,41,16.40
2006,05,30,10,42,16.50
2006,05,30,10,43,16.60
2006,05,30,10,44,16.70
2006,05,30,10,45,16.90
2006,05,30,10,46,17.00
2006,05,30,10,47,17.00
2006,05,30,10,48,17.00
2006,05,30,10,49,17.10
2006,05,30,10,50,17.20
2006,05,30,10,51,17.10
2006,05,30,10,52,17.00
2006,05,30,10,53,17.00
2006,05,30,10,54,17.00
2006,05,30,10,55,17.10
2006,05,30,10,56,17.20
2006,05,30,10,57,17.30
2006,05,30,10,58,17.40
2006,05,30,10,59,17.50
2006,05,30,11,00,17.60
2006,05,30,11,01,17.70
2006,05,30,11,02,17.70
2006,05,30,11,03,17.70
2006,05,30,11,04,17.70
2006,05,30,11,05,17.60
2006,05,30,11,06,17.60
2006,05,30,11,07,17.50
2006,05,30,11,08,17.50
2006,05,30,11,09,17.50
2006,05,30,11,10,17.50
2006,05,30,11,11,17.40
2006,05,30,11,12,17.50
2006,05,30,11,13,17.40
2006,05,30,11,14,17.30
2006,05,30,11,15,17.30
2006,05,30,11,16,17.20
2006,05,30,11,17,17.30
2006,05,30,11,18,17.30
2006,05,30,11,19,17.30
2006,05,30,11,20,17.20
2006,05,30,11,21,17.10
2006,05,30,11,22,17.10
2006,05,30,11,23,17.00
2006,05,30,11,24,17.00
2006,05,30,11,25,17.10
2006,05,30,11,26,17.20
2006,05,30,11,27,17.30
2006,05,30,11,28,17.30
2006,05,30,11,29,17.30
2006,05,30,11,30,17.40
2006,05,30,11,31,17.40
2006,05,30,11,32,17.40
2006,05,30,11,33,17.30
2006,05,30,11,34,17.30
2006,05,30,11,35,17.30
2006,05,30,11,36,17.30
2006,05,30,11,37,17.30
2006,05,30,11,38,17.30
2006,05,30,11,39,17.20
2006,05,30,11,40,17.20
2006,05,30,11,41,17.20
2006,05,30,11,42,17.10
2006,05,30,11,43,17.10
2006,05,30,11,44,17.30
2006,05,30,11,45,17.30
2006,05,30,11,46,17.30
2006,05,30,11,47,17.30
2006,05,30,11,48,17.30
2006,05,30,11,49,17.30
2006,05,30,11,50,17.40
2006,05,30,11,51,17.50
2006,05,30,11,52,17.60
2006,05,30,11,53,17.70
2006,05,30,11,54,17.80
2006,05,30,11,55,17.90
2006,05,30,11,56,18.00
2006,05,30,11,57,18.10
2006,05,30,11,58,18.20
2006,05,30,11,59,18.10
2006,05,30,12,00,18.00
2006,05,30,12,01,17.90
2006,05,30,12,02,17.90
2006,05,30,12,03,17.80
2006,05,30,12,04,17.70
2006,05,30,12,05,17.60
2006,05,30,12,06,17.60
2006,05,30,12,07,17.70
2006,05,30,12,08,17.80
2006,05,30,12,09,17.90
2006,05,30,12,10,17.90
2006,05,30,12,11,18.10
2006,05,30,12,12,18.20
2006,05,30,12,13,18.30
2006,05,30,12,14,18.20
2006,05,30,12,15,18.20
2006,05,30,12,16,18.10
2006,05,30,12,17,18.10
2006,05,30,12,18,18.10
2006,05,30,12,19,18.20
2006,05,30,12,20,18.10
2006,05,30,12,21,18.00
2006,05,30,12,22,18.00
2006,05,30,12,23,17.90
2006,05,30,12,24,17.90
2006,05,30,12,25,18.00
2006,05,30,12,26,18.20
2006,05,30,12,27,18.30
2006,05,30,12,28,18.40
2006,05,30,12,29,18.50
2006,05,30,12,30,18.60
2006,05,30,12,31,18.70
2006,05,30,12,32,18.70
2006,05,30,12,33,18.60
2006,05,30,12,34,18.60
2006,05,30,12,35,18.70
2006,05,30,12,36,18.60
2006,05,30,12,37,18.60
2006,05,30,12,38,18.60
2006,05,30,12,39,18.70
2006,05,30,12,40,18.70
2006,05,30,12,41,18.70
2006,05,30,12,42,18.70
2006,05,30,12,43,18.80
2006,05,30,12,44,18.90
2006,05,30,12,45,18.90
2006,05,30,12,46,18.90
2006,05,30,12,47,19.10
2006,05,30,12,48,19.10
2006,05,30,12,49,18.90
2006,05,30,12,50,19.00
2006,05,30,12,51,19.10
2006,05,30,12,52,19.20
2006,05,30,12,53,19.20
2006,05,30,12,54,19.30
2006,05,30,12,55,19.40
2006,05,30,12,56,19.50
2006,05,30,12,57,19.60
2006,05,30,12,58,19.60
2006,05,30,12,59,19.60
2006,05,30,13,00,19.50
2006,05,30,13,01,19.30
2006,05,30,13,02,19.30
2006,05,30,13,03,19.20
2006,05,30,13,04,19.10
2006,05,30,13,05,19.10
2006,05,30,13,06,19.10
2006,05,30,13,07,19.10
2006,05,30,13,08,19.10
2006,05,30,13,09,19.10
2006,05,30,13,10,19.10
2006,05,30,13,11,19.10
2006,05,30,13,12,19.00
2006,05,30,13,13,18.90
2006,05,30,13,14,18.70
2006,05,30,13,15,18.70
2006,05,30,13,16,18.70
2006,05,30,13,17,18.80
2006,05,30,13,18,18.90
2006,05,30,13,19,18.90
2006,05,30,13,20,19.00
2006,05,30,13,21,19.20
2006,05,30,13,22,19.10
2006,05,30,13,23,19.10
2006,05,30,13,24,19.10
2006,05,30,13,25,19.10
2006,05,30,13,26,19.10
2006,05,30,13,27,19.10
2006,05,30,13,28,19.10
2006,05,30,13,29,19.10
2006,05,30,13,30,19.00
2006,05,30,13,31,19.10
2006,05,30,13,32,19.10
2006,05,30,13,33,19.10
2006,05,30,13,34,19.20
2006,05,30,13,35,19.20
2006,05,30,13,36,19.30
2006,05,30,13,37,19.30
2006,05,30,13,38,19.30
2006,05,30,13,39,19.20
2006,05,30,13,40,19.10
2006,05,30,13,41,19.20
2006,05,30,13,42,19.30
2006,05,30,13,43,19.30
2006,05,30,13,44,19.20
2006,05,30,13,45,18.90
2006,05,30,13,46,18.90
2006,05,30,13,47,18.90
2006,05,30,13,48,18.90
2006,05,30,13,49,19.10
2006,05,30,13,50,19.10
2006,05,30,13,51,19.20
2006,05,30,13,52,19.20
2006,05,30,13,53,19.30
2006,05,30,13,54,19.30
2006,05,30,13,55,19.30
2006,05,30,13,56,19.30
2006,05,30,13,57,19.40
2006,05,30,13,58,19.50
2006,05,30,13,59,19.40
2006,05,30,14,00,19.30
2006,05,30,14,01,19.20
2006,05,30,14,02,19.30
2006,05,30,14,03,19.40
2006,05,30,14,04,19.50
2006,05,30,14,05,19.60
2006,05,30,14,06,19.60
2006,05,30,14,07,19.70
2006,05,30,14,08,19.90
2006,05,30,14,09,19.90
2006,05,30,14,10,19.80
2006,05,30,14,11,19.60
2006,05,30,14,12,19.60
2006,05,30,14,13,19.70
2006,05,30,14,14,19.80
2006,05,30,14,15,19.80
2006,05,30,14,16,19.80
2006,05,30,14,17,20.00
2006,05,30,14,18,20.20
2006,05,30,14,19,20.20
2006,05,30,14,20,20.20
2006,05,30,14,21,20.20
2006,05,30,14,22,20.30
2006,05,30,14,23,20.50
2006,05,30,14,24,20.50
2006,05,30,14,25,20.50
2006,05,30,14,26,20.60
2006,05,30,14,27,20.70
2006,05,30,14,28,20.60
2006,05,30,14,29,20.60
2006,05,30,14,30,20.70
2006,05,30,14,31,20.60
2006,05,30,14,32,20.40
2006,05,30,14,33,20.30
2006,05,30,14,34,20.30
2006,05,30,14,35,20.40
2006,05,30,14,36,20.40
2006,05,30,14,37,20.40
2006,05,30,14,38,20.40
2006,05,30,14,39,20.50
2006,05,30,14,40,20.50
2006,05,30,14,41,20.60
2006,05,30,14,42,20.50
2006,05,30,14,43,20.40
2006,05,30,14,44,20.30
2006,05,30,14,45,20.20
2006,05,30,14,46,20.20
2006,05,30,14,47,20.20
2006,05,30,14,48,20.20
2006,05,30,14,49,20.30
2006,05,30,14,50,20.30
2006,05,30,14,51,20.30
2006,05,30,14,52,20.40
2006,05,30,14,53,20.50
2006,05,30,14,54,20.60
2006,05,30,14,55,20.60
2006,05,30,14,56,20.50
2006,05,30,14,57,20.30
2006,05,30,14,58,20.20
2006,05,30,14,59,20.20
2006,05,30,15,00,20.30
2006,05,30,15,01,20.30
2006,05,30,15,02,20.40
2006,05,30,15,03,20.50
2006,05,30,15,04,20.70
2006,05,30,15,05,20.80
2006,05,30,15,06,20.90
2006,05,30,15,07,20.80
2006,05,30,15,08,20.70
2006,05,30,15,09,20.70
2006,05,30,15,10,20.60
2006,05,30,15,11,20.50
2006,05,30,15,12,20.50
2006,05,30,15,13,20.60
2006,05,30,15,14,20.50
2006,05,30,15,15,20.40
2006,05,30,15,16,20.30
2006,05,30,15,17,20.30
2006,05,30,15,18,20.40
2006,05,30,15,19,20.50
2006,05,30,15,20,20.60
2006,05,30,15,21,20.70
2006,05,30,15,22,20.80
2006,05,30,15,23,21.00
2006,05,30,15,24,21.10
2006,05,30,15,25,21.20
2006,05,30,15,26,21.30
2006,05,30,15,27,21.30
2006,05,30,15,28,21.30
2006,05,30,15,29,21.20
2006,05,30,15,30,21.20
2006,05,30,15,31,21.20
2006,05,30,15,32,21.20
2006,05,30,15,33,21.20
2006,05,30,15,34,21.20
2006,05,30,15,35,21.10
2006,05,30,15,36,21.00
2006,05,30,15,37,20.90
2006,05,30,15,38,20.80
2006,05,30,15,39,20.70
2006,05,30,15,40,20.70
2006,05,30,15,41,20.80
2006,05,30,15,42,20.80
2006,05,30,15,43,20.80
2006,05,30,15,44,20.80
2006,05,30,15,45,20.80
2006,05,30,15,46,20.90
2006,05,30,15,47,20.90
2006,05,30,15,48,21.00
2006,05,30,15,49,21.00
2006,05,30,15,50,21.00
2006,05,30,15,51,21.00
2006,05,30,15,52,20.90
2006,05,30,15,53,20.80
2006,05,30,15,54,20.60
2006,05,30,15,55,20.50
2006,05,30,15,56,20.60
2006,05,30,15,57,20.70
2006,05,30,15,58,20.90
2006,05,30,15,59,20.90
2006,05,30,16,00,20.90
2006,05,30,16,01,20.90
2006,05,30,16,02,21.00
2006,05,30,16,03,21.10
2006,05,30,16,04,21.10
2006,05,30,16,05,21.00
2006,05,30,16,06,21.10
2006,05,30,16,07,21.10
2006,05,30,16,08,21.20
2006,05,30,16,09,21.30
2006,05,30,16,10,21.30
2006,05,30,16,11,21.30
2006,05,30,16,12,21.30
2006,05,30,16,13,21.30
2006,05,30,16,14,21.30
2006,05,30,16,15,21.30
2006,05,30,16,16,21.30
2006,05,30,16,17,21.30
2006,05,30,16,18,21.40
2006,05,30,16,19,21.50
2006,05,30,16,20,21.40
2006,05,30,16,21,21.30
2006,05,30,16,22,21.30
2006,05,30,16,23,21.30
2006,05,30,16,24,21.30
2006,05,30,16,25,21.20
2006,05,30,16,26,21.10
2006,05,30,16,27,21.10
2006,05,30,16,28,21.10
2006,05,30,16,29,21.10
2006,05,30,16,30,21.20
2006,05,30,16,31,21.30
2006,05,30,16,32,21.30
2006,05,30,16,33,21.30
2006,05,30,16,34,21.40
2006,05,30,16,35,21.40
2006,05,30,16,36,21.40
2006,05,30,16,37,21.50
2006,05,30,16,38,21.40
2006,05,30,16,39,21.30
2006,05,30,16,40,21.20
2006,05,30,16,41,21.20
2006,05,30,16,42,21.20
2006,05,30,16,43,21.00
2006,05,30,16,44,20.80
2006,05,30,16,45,20.80
2006,05,30,16,46,20.80
2006,05,30,16,47,20.90
2006,05,30,16,48,20.90
2006,05,30,16,49,20.90
2006,05,30,16,50,20.90
2006,05,30,16,51,20.90
2006,05,30,16,52,20.90
2006,05,30,16,53,20.90
2006,05,30,16,54,20.90
2006,05,30,16,55,20.90
2006,05,30,16,56,20.90
2006,05,30,16,57,21.00
2006,05,30,16,58,21.10
2006,05,30,16,59,21.20
2006,05,30,17,00,21.30
2006,05,30,17,01,21.30
2006,05,30,17,02,21.30
2006,05,30,17,03,21.30
2006,05,30,17,04,21.20
2006,05,30,17,05,21.00
2006,05,30,17,06,21.00
2006,05,30,17,07,20.90
2006,05,30,17,08,21.00
2006,05,30,17,09,21.00
2006,05,30,17,10,21.10
2006,05,30,17,11,21.10
2006,05,30,17,12,21.10
2006,05,30,17,13,21.10
2006,05,30,17,14,21.10
2006,05,30,17,15,21.10
2006,05,30,17,16,21.10
2006,05,30,17,17,21.10
2006,05,30,17,18,21.20
2006,05,30,17,19,21.30
2006,05,30,17,20,21.30
2006,05,30,17,21,21.30
2006,05,30,17,22,21.20
2006,05,30,17,23,21.20
2006,05,30,17,24,21.20
2006,05,30,17,25,21.10
2006,05,30,17,26,21.10
2006,05,30,17,27,21.10
2006,05,30,17,28,21.20
2006,05,30,17,29,21.30
2006,05,30,17,30,21.30
2006,05,30,17,31,21.20
2006,05,30,17,32,21.10
2006,05,30,17,33,21.00
2006,05,30,17,34,21.00
2006,05,30,17,35,21.00
2006,05,30,17,36,20.90
2006,05,30,17,37,20.90
2006,05,30,17,38,20.80